Printer-friendly version

IAU Minor Planet Center

Minor Planet Center

MPEC 2006-N35 : COMET C/2006 M1 (LINEAR)

The following Minor Planet Electronic Circular may be linked-to from your own Web pages, but must not otherwise be redistributed electronically.


Read MPEC 2006-N34 Read MPEC 2006-N36


M.P.E.C. 2006-N35                                Issued 2006 July 14, 20:53 UT

     The Minor Planet Electronic Circulars contain information on unusual
         minor planets and routine data on comets.  They are published
   on behalf of Commission 20 of the International Astronomical Union by the
          Minor Planet Center, Smithsonian Astrophysical Observatory,
                          Cambridge, MA 02138, U.S.A.

                  Supported in part by the Brinson Foundation
                  Supported in part by the TABASGO Foundation
             Prepared using the Tamkin Foundation Computer Network

                              MPC@CFA.HARVARD.EDU
          URL http://cfa-www.harvard.edu/iau/mpc.html  ISSN 1523-6714

                           COMET C/2006 M1 (LINEAR)

Observations:
    CK06M010  C2006 07 07.98322 19 51 52.84 +47 02 27.4                 EN035213
    CK06M010  C2006 07 07.98436 19 51 52.80 +47 02 28.1                 EN035213
    CK06M010  C2006 07 07.98550 19 51 52.76 +47 02 28.6                 EN035213
    CK06M010  C2006 07 08.98345 19 51 18.04 +47 09 27.6          17.1 N EN035J97
    CK06M010  C2006 07 08.98999 19 51 17.79 +47 09 30.8          17.1 N EN035J97
    CK06M010  C2006 07 08.99606 19 51 17.53 +47 09 33.9          16.9 N EN035J67
    CK06M010  C2006 07 08.99817 19 51 17.50 +47 09 35.1          17.2 N EN035J97
    CK06M010  C2006 07 08.99914 19 51 17.41 +47 09 34.8          17.6 N EN035J67
    CK06M010  C2006 07 09.00064 19 51 17.35 +47 09 36.5          17.6 N EN035J67
    CK06M010  C2006 07 10.17060 19 50 36.07 +47 17 29.8          18.0 T EN035673
    CK06M010  C2006 07 10.17778 19 50 35.82 +47 17 32.8                 EN035673
    CK06M010  C2006 07 10.18495 19 50 35.54 +47 17 35.7                 EN035673
    CK06M010  C2006 07 10.19537 19 50 35.19 +47 17 39.8                 EN035673
    CK06M010  C2006 07 10.91116 19 50 09.42 +47 22 20.6          17.6 N EN035213
    CK06M010  C2006 07 10.91238 19 50 09.39 +47 22 21.1          17.6 N EN035213
    CK06M010  C2006 07 10.91358 19 50 09.35 +47 22 21.5          17.6 N EN035213

Observer details:
213 Observatorio Montcabre.  Observer R. Naves.  Measurer M. Campas.  0.30-m
    f/10 Schmidt-Cassegrain + CCD.
673 Table Mountain Observatory, Wrightwood.  Observer J. Young.  0.61-m f/16
    Cassegrain + CCD.
J67 Observatorio La Puebla de Vallbona.  Observer E. Arce.  0.25-m f/4.7
    Schmidt-Cassegrain + CCD.
J97 Alginet.  Observer T. Climent.  0.25-m f/3.3 Schmidt-Cassegrain + CCD.

Orbital elements:
    C/2006 M1 (LINEAR)
T 2007 Feb. 13.803 TT                                   MPC
q   3.55749              (2000.0)            P               Q
z  +0.00663        Peri.  122.849       +0.715641       +0.276895
                   Node   231.625       -0.158465       +0.958490
e   0.97642        Incl.   54.879       +0.680255       -0.068020
From 99 observations 2006 June 18-July 10.

Ephemeris:
    C/2006 M1 (LINEAR)
Date    TT    R. A. (2000) Decl.     Delta      r     Elong.  Phase   m1    m2
2006 07 14    19 48.26   +47 41.1    3.570    4.039   110.5    13.6  17.3
2006 07 24    19 41.83   +48 25.4    3.517    3.999   111.3    13.7  17.2
2006 08 03    19 35.44   +48 43.7    3.473    3.960   111.5    13.8  17.2
2006 08 13    19 29.77   +48 36.6    3.440    3.922   111.2    13.9  17.1
2006 08 23    19 25.43   +48 06.0    3.416    3.886   110.4    14.1  17.1
2006 09 02    19 22.96   +47 14.7    3.401    3.851   109.1    14.3  17.0

Brian G. Marsden             (C) Copyright 2006 MPC           M.P.E.C. 2006-N35

Read MPEC 2006-N34 Read MPEC 2006-N36


Our Web policy. Index to the CBAT/MPC/ICQ pages.


Valid HTML 4.01!